Regional Weather Roundup
Issued by NWS

Home | Current Version | Previous Version | Graphics & Text | Print | Product List | Glossary On
Versions: 1 2 3 4 5 6 7 8 9 10 11 12 13 14 15 16 17 18 19 20 21 22 23 24 25 26 27 28 29 30 31 32 33 34 35 36 37 38 39 40 41 42 43 44 45 46 47 48 49 50
000
ASUS43 KIND 281800
RWRIN

WEATHER ROUNDUP FOR INDIANA
NATIONAL WEATHER SERVICE INDIANAPOLIS IN
200 PM EDT FRI JUL 28 2017

NOTE: "FAIR" INDICATES FEW OR NO CLOUDS BELOW 12,000 FEET WITH NO
SIGNIFICANT WEATHER AND/OR OBSTRUCTIONS TO VISIBILITY.

* - STATION DOES NOT REPORT WEATHER SUCH AS PRECIPITATION OR FOG.

+ - STATION NOT QUALITY CONTROLLED BY THE NATIONAL WEATHER SERVICE.
    USE DATA WITH CAUTION...ESPECIALLY DEWPOINT AND RELATIVE
    HUMIDITY OBSERVATIONS.

INZ001>003-010>013-019-020-281900-
NORTHWEST INDIANA

CITY           SKY/WX    TMP DP  RH WIND       PRES   REMARKS
GARY /AIRPORT/ MOSUNNY   75  63  64 N14G25    30.00R
MICHIGAN CITY+ SUNNY     75  64  69 N12G18    29.99S
MONTICELLO +   SUNNY     77  64  63 N12       29.94S
6HR MIN TEMP:  69; 6HR MAX TEMP:  77;

RENSSELAER +   SUNNY     79  61  53 NE10      29.96S

$$

LMZ046-743>745-281900-
SOUTHERN LAKE MICHIGAN

STATION/POSITION TIME  TEMP    WIND        PRES    WAVE
                       AIR SEA DIR/SP/G            HT
                 (UTC) (F)     (DEG/KT/KT) (MB)    (FT)
BURNS HARBOR     1740   71      30/ 16/ 19 1015.9R
MICHIGAN CITY    1730   70      10/ 20/ 21   N/A
5NW MICH CITY    1740   71 74   20/ 16/ 19   N/A     4

$$

INZ004-005-014>016-021>024-281900-
NORTH CENTRAL INDIANA

CITY           SKY/WX    TMP DP  RH WIND       PRES   REMARKS
ELKHART        MOSUNNY   79  57  47 NE12      29.96F
GOSHEN         MOSUNNY   78  58  49 NE12G18   29.95F
6HR MIN TEMP:  65; 6HR MAX TEMP:  79;

SOUTH BEND     MOSUNNY   78  60  53 NE12G20   29.97S
6HR MIN TEMP:  66; 6HR MAX TEMP:  79;


$$

INZ006>009-017-018-025>027-281900-
NORTHEAST INDIANA

CITY           SKY/WX    TMP DP  RH WIND       PRES   REMARKS
FORT WAYNE     PTSUNNY   76  63  64 NE10      29.94S
6HR MIN TEMP:  66; 6HR MAX TEMP:  76; 6HR PCP: TRACE;

KENDALLVILLE + MOSUNNY   76  62  62 NE9G17    29.96S

$$

INZ028-029-035-036-043>045-051>053-281900-
WEST CENTRAL INDIANA

CITY           SKY/WX    TMP DP  RH WIND       PRES   REMARKS
GREENCASTLE +  MOSUNNY   79  66  65 NE12      29.91S
LAFAYETTE      PTSUNNY   77  65  66 N10G21    29.93S
6HR MIN TEMP:  71; 6HR MAX TEMP:  79;

TERRE HAUTE    MOSUNNY   80  69  69 NE10G20   29.89S
6HR MIN TEMP:  70; 6HR MAX TEMP:  81;


$$

INZ030>032-037>040-046>048-054>057-064-065-281900-
CENTRAL INDIANA

CITY           SKY/WX    TMP DP  RH WIND       PRES   REMARKS
COLUMBUS       PTSUNNY   81  63  54 NE12      29.87S
GREENWOOD *+   MOSUNNY  N/A N/A N/A NE12G18   29.90S
INDIANAPOLIS   PTSUNNY   81  66  60 N20       29.89S
6HR MIN TEMP:  74; 6HR MAX TEMP:  82;

-EAGLE CREEK   MOSUNNY   81  63  54 NE15G22   29.90S
6HR MIN TEMP:  74; 6HR MAX TEMP:  81;

KOKOMO +       MOSUNNY   76  64  66 NE10      29.94
6HR MIN TEMP:  69; 6HR MAX TEMP:  76;

MT COMFORT *+  MOSUNNY   79  66  65 N10G17    29.91S
SHELBYVILLE    MOSUNNY   81  67  62 N16G22    29.88S
6HR MIN TEMP:  74; 6HR MAX TEMP:  81;


$$

INZ033-034-041-042-049-050-058-059-281900-
EAST CENTRAL INDIANA

CITY           SKY/WX    TMP DP  RH WIND       PRES   REMARKS
MUNCIE         PTSUNNY   78  66  66 NE12      29.91F
6HR MIN TEMP:  70; 6HR MAX TEMP:  78;

RICHMOND +     MOSUNNY   77  66  69 NE10G20   29.91S

$$

INZ060-061-067>069-081>083-085>088-281900-
SOUTHWEST INDIANA

CITY           SKY/WX    TMP DP  RH WIND       PRES   REMARKS
EVANSVILLE     CLOUDY    78  72  81 N10       29.85S
6HR MIN TEMP:  75; 6HR MAX TEMP:  81;

HUNTINGBURG *+ PTSUNNY   80  74  81 N5        29.83S
6HR MIN TEMP:  75; 6HR MAX TEMP:  82;


$$

INZ062-063-066-070>080-084-089>092-281900-
SOUTH CENTRAL AND SOUTHEAST INDIANA

CITY           SKY/WX    TMP DP  RH WIND       PRES   REMARKS
BLOOMINGTON    PTSUNNY   81  65  58 NE16      29.87S
6HR MIN TEMP:  75; 6HR MAX TEMP:  84;

MADISON *+     PTSUNNY   79  70  73 NE10      29.87R
SEYMOUR +      PTSUNNY   82  70  65 NE9       29.85R

$$





USA.gov is the U.S. government's official web portal to all federal, state and local government web resources and services.